| time (UTC) | temp F | wind direction | speed MPH | gust MPH | rain 1hr in | rain 24hr in | rain mn in | humidity % | barometer mb |
| 20260503035829 | 92 | 228 | 2.0 | 4.0 | 0.00 | 0.00 | 0.00 | 35 | 1009.9 |
| 20260503035320 | 90 | 188 | 1.0 | 4.0 | 0.00 | 0.00 | 0.00 | 38 | 1010.1 |
| 20260503033829 | 89 | 202 | 1.0 | 2.0 | 0.00 | 0.00 | 0.00 | 41 | 1010.3 |
| 20260503032829 | 89 | 192 | 0.0 | 3.0 | 0.00 | 0.00 | 0.00 | 41 | 1010.4 |
| 20260503031824 | 89 | 194 | 0.0 | 3.0 | 0.00 | 0.00 | 0.00 | 42 | 1010.4 |
| 20260503030825 | 88 | 191 | 0.0 | 4.0 | 0.00 | 0.00 | 0.00 | 43 | 1010.5 |
| 20260503025824 | 87 | 216 | 2.0 | 3.0 | 0.00 | 0.00 | 0.00 | 44 | 1010.6 |
| 20260503024825 | 86 | 203 | 0.0 | 3.0 | 0.00 | 0.00 | 0.00 | 46 | 1010.6 |
| 20260503024324 | 85 | 191 | 0.0 | 2.0 | 0.00 | 0.00 | 0.00 | 47 | 1010.6 |
| 20260503023255 | 85 | 183 | 0.0 | 3.0 | 0.00 | 0.00 | 0.00 | 49 | 1010.6 |
| 20260503023015 | 85 | 228 | 1.0 | 3.0 | 0.00 | 0.00 | 0.00 | 48 | 1010.7 |
| 20260503020813 | 84 | 172 | 0.0 | 7.0 | 0.00 | 0.00 | 0.00 | 49 | 1010.6 |
| 20260503015811 | 84 | 184 | 0.0 | 2.0 | 0.00 | 0.00 | 0.00 | 50 | 1010.5 |
| 20260503015756 | 84 | 202 | 1.0 | 3.0 | 0.00 | 0.00 | 0.00 | 51 | 1010.3 |
| 20260503013811 | 84 | 196 | 0.0 | 2.0 | 0.00 | 0.00 | 0.00 | 51 | 1010.5 |
| 20260503012812 | 83 | 186 | 0.0 | 2.0 | 0.00 | 0.00 | 0.00 | 52 | 1010.3 |
| 20260503011811 | 82 | 172 | 0.0 | 3.0 | 0.00 | 0.00 | 0.00 | 54 | 1010.3 |
| 20260503010811 | 82 | 156 | 0.0 | 2.0 | 0.00 | 0.00 | 0.00 | 53 | 1010.1 |
| 20260503010301 | 81 | 181 | 0.0 | 2.0 | 0.00 | 0.00 | 0.00 | 55 | 1010.0 |
| 20260503004811 | 81 | 161 | 0.0 | 2.0 | 0.00 | 0.00 | 0.00 | 55 | 1010.0 |
| 20260503004737 | 80 | 132 | 1.0 | 2.0 | 0.00 | 0.00 | 0.00 | 56 | 1009.9 |
| 20260503002810 | 80 | 181 | 0.0 | 2.0 | 0.00 | 0.00 | 0.00 | 56 | 1009.9 |
| 20260503001811 | 79 | 184 | 0.0 | 3.0 | 0.00 | 0.00 | 0.00 | 57 | 1009.6 |
| 20260503001257 | 79 | 181 | 0.0 | 1.0 | 0.00 | 0.00 | 0.00 | 58 | 1009.7 |
| 20260502235811 | 78 | 180 | 0.0 | 1.0 | 0.00 | 0.00 | 0.00 | 58 | 1009.6 |
| 20260502235257 | 78 | 183 | 0.0 | 0.0 | 0.00 | 0.00 | 0.00 | 59 | 1009.3 |
| 20260502234254 | 78 | 181 | 0.0 | 1.0 | 0.00 | 0.00 | 0.00 | 59 | 1009.3 |
| 20260502232809 | 77 | 173 | 0.0 | 0.0 | 0.00 | 0.00 | 0.00 | 60 | 1009.3 |
| 20260502232255 | 77 | 181 | 0.0 | 0.0 | 0.00 | 0.00 | 0.00 | 60 | 1009.2 |
| 20260502230809 | 77 | 183 | 0.0 | 0.0 | 0.00 | 0.00 | 0.00 | 60 | 1009.0 |
| 20260502225808 | 77 | 184 | 0.0 | 0.0 | 0.00 | 0.00 | 0.00 | 60 | 1009.0 |
| 20260502224809 | 77 | 195 | 0.0 | 0.0 | 0.00 | 0.00 | 0.00 | 60 | 1008.6 |
| 20260502223808 | 77 | 186 | 0.0 | 1.0 | 0.00 | 0.00 | 0.00 | 59 | 1008.5 |
| 20260502222804 | 77 | 181 | 0.0 | 0.0 | 0.00 | 0.00 | 0.00 | 59 | 1008.4 |
| 20260502221803 | 78 | 181 | 0.0 | 0.0 | 0.00 | 0.00 | 0.00 | 59 | 1008.4 |
| 20260502220803 | 78 | 182 | 0.0 | 0.0 | 0.00 | 0.00 | 0.00 | 59 | 1008.3 |
| 20260502215802 | 78 | 182 | 0.0 | 0.0 | 0.00 | 0.00 | 0.00 | 58 | 1008.2 |
| 20260502214801 | 78 | 183 | 0.0 | 0.0 | 0.00 | 0.00 | 0.00 | 58 | 1008.2 |
| 20260502214735 | 78 | 182 | 0.0 | 0.0 | 0.00 | 0.00 | 0.00 | 58 | 1008.1 |
| 20260502212808 | 78 | 182 | 0.0 | 0.0 | 0.00 | 0.00 | 0.00 | 58 | 1007.9 |
| 20260502211801 | 78 | 182 | 0.0 | 0.0 | 0.00 | 0.00 | 0.00 | 58 | 1008.0 |
| 20260502210800 | 78 | 181 | 0.0 | 1.0 | 0.00 | 0.00 | 0.00 | 58 | 1007.8 |
| 20260502205801 | 78 | 179 | 0.0 | 0.0 | 0.00 | 0.00 | 0.00 | 57 | 1007.8 |
| 20260502205244 | 78 | 184 | 0.0 | 0.0 | 0.00 | 0.00 | 0.00 | 58 | 1007.8 |
| 20260502203802 | 78 | 182 | 0.0 | 0.0 | 0.00 | 0.00 | 0.00 | 57 | 1007.8 |
| 20260502203243 | 78 | 179 | 0.0 | 0.0 | 0.00 | 0.00 | 0.00 | 57 | 1007.9 |
| 20260502201801 | 78 | 191 | 0.0 | 0.0 | 0.00 | 0.00 | 0.00 | 57 | 1007.9 |
| 20260502200800 | 78 | 171 | 0.0 | 0.0 | 0.00 | 0.00 | 0.00 | 57 | 1007.9 |
| 20260502195801 | 78 | 186 | 0.0 | 1.0 | 0.00 | 0.00 | 0.00 | 57 | 1007.9 |
| 20260502194801 | 78 | 192 | 0.0 | 1.0 | 0.00 | 0.00 | 0.00 | 57 | 1007.9 |
| 20260502193931 | 78 | 183 | 0.0 | 1.0 | 0.00 | 0.00 | 0.00 | 57 | 1007.9 |
| 20260502193456 | 78 | 182 | 0.0 | 2.0 | 0.00 | 0.00 | 0.00 | 57 | 1008.1 |
| 20260502192443 | 78 | 194 | 0.0 | 1.0 | 0.00 | 0.00 | 0.00 | 56 | 1008.2 |
| 20260502190925 | 78 | 178 | 0.0 | 0.0 | 0.00 | 0.00 | 0.00 | 57 | 1008.2 |
| 20260502190440 | 78 | 196 | 0.0 | 0.0 | 0.00 | 0.00 | 0.00 | 57 | 1008.3 |
| 20260502185925 | 78 | 180 | 0.0 | 1.0 | 0.00 | 0.00 | 0.00 | 57 | 1008.3 |
| 20260502183915 | 79 | 194 | 0.0 | 0.0 | 0.00 | 0.00 | 0.00 | 56 | 1008.4 |
| 20260502183423 | 78 | 194 | 0.0 | 0.0 | 0.00 | 0.00 | 0.00 | 56 | 1008.3 |
| 20260502182420 | 79 | 191 | 0.0 | 0.0 | 0.00 | 0.00 | 0.00 | 56 | 1008.4 |
| 20260502181413 | 79 | 189 | 0.0 | 1.0 | 0.00 | 0.00 | 0.00 | 56 | 1008.4 |
| 20260502163834 | 79 | 197 | 0.0 | 2.0 | 0.00 | 0.00 | 0.00 | 56 | 1009.1 |
| 20260502162831 | 79 | 189 | 1.0 | 7.0 | 0.00 | 0.00 | 0.00 | 56 | 1009.1 |
| 20260502161827 | 79 | 199 | 1.0 | 2.0 | 0.00 | 0.00 | 0.00 | 57 | 1009.2 |
| 20260502160822 | 79 | 189 | 0.0 | 2.0 | 0.00 | 0.00 | 0.00 | 56 | 1009.2 |
| 20260502152308 | 79 | 192 | 1.0 | 3.0 | 0.00 | 0.00 | 0.00 | 54 | 1009.1 |
| 20260502151807 | 79 | 166 | 1.0 | 3.0 | 0.00 | 0.00 | 0.00 | 54 | 1009.3 |
| 20260502130707 | 81 | 254 | 2.0 | 6.0 | 0.00 | 0.00 | 0.00 | 46 | 1007.3 |
| 20260502130509 | 81 | 203 | 2.0 | 7.0 | 0.00 | 0.00 | 0.00 | 45 | 1007.2 |
| 20260502123804 | 81 | 181 | 2.0 | 4.0 | 0.00 | 0.00 | 0.00 | 46 | 1006.8 |
| 20260502122802 | 82 | 174 | 0.0 | 4.0 | 0.00 | 0.00 | 0.00 | 44 | 1006.5 |
| 20260502121800 | 81 | 154 | 2.0 | 7.0 | 0.00 | 0.00 | 0.00 | 44 | 1006.3 |
| 20260502121723 | 83 | 140 | 0.0 | 3.0 | 0.00 | 0.00 | 0.00 | 43 | 1006.0 |
| 20260502120239 | 83 | 144 | 0.0 | 4.0 | 0.00 | 0.00 | 0.00 | 43 | 1005.8 |
| 20260502114807 | 84 | 153 | 0.0 | 3.0 | 0.00 | 0.00 | 0.00 | 41 | 1005.7 |
| 20260502114725 | 84 | 169 | 0.0 | 2.0 | 0.00 | 0.00 | 0.00 | 41 | 1005.7 |
| 20260502113241 | 84 | 163 | 1.0 | 1.0 | 0.00 | 0.00 | 0.00 | 40 | 1005.6 |
| 20260502112727 | 84 | 166 | 1.0 | 6.0 | 0.00 | 0.00 | 0.00 | 40 | 1005.6 |
| 20260502110801 | 85 | 177 | 0.0 | 3.0 | 0.00 | 0.00 | 0.00 | 39 | 1005.6 |
| 20260502105801 | 85 | 170 | 0.0 | 4.0 | 0.00 | 0.00 | 0.00 | 39 | 1005.6 |
| 20260502105246 | 85 | 175 | 0.0 | 6.0 | 0.00 | 0.00 | 0.00 | 38 | 1005.5 |
| 20260502103800 | 86 | 195 | 2.0 | 3.0 | 0.00 | 0.00 | 0.00 | 38 | 1005.3 |
| 20260502102801 | 87 | 228 | 0.0 | 3.0 | 0.00 | 0.00 | 0.00 | 37 | 1005.3 |
| 20260502101801 | 87 | 198 | 2.0 | 4.0 | 0.00 | 0.00 | 0.00 | 36 | 1005.3 |
| 20260502100801 | 87 | 200 | 3.0 | 6.0 | 0.00 | 0.00 | 0.00 | 37 | 1005.3 |
| 20260502090801 | 91 | 223 | 2.0 | 4.0 | 0.00 | 0.00 | 0.00 | 36 | 1005.1 |
| 20260502090243 | 91 | 210 | 1.0 | 4.0 | 0.00 | 0.00 | 0.00 | 36 | 1005.1 |
| 20260502070923 | 97 | 214 | 3.0 | 4.0 | 0.00 | 0.00 | 0.00 | 30 | 1006.7 |
| 20260502065915 | 96 | 228 | 2.0 | 3.0 | 0.00 | 0.00 | 0.00 | 31 | 1007.0 |
| 20260502064914 | 94 | 188 | 0.0 | 6.0 | 0.00 | 0.00 | 0.00 | 32 | 1007.2 |
| 20260502063911 | 95 | 240 | 1.0 | 2.0 | 0.00 | 0.00 | 0.00 | 32 | 1007.4 |
| 20260502062906 | 95 | 119 | 0.0 | 3.0 | 0.00 | 0.00 | 0.00 | 32 | 1007.6 |
| 20260502062429 | 94 | 202 | 0.0 | 3.0 | 0.00 | 0.00 | 0.00 | 32 | 1007.7 |
| 20260502060858 | 94 | 126 | 1.0 | 3.0 | 0.00 | 0.00 | 0.00 | 33 | 1008.1 |
| 20260502055851 | 94 | 193 | 0.0 | 3.0 | 0.00 | 0.00 | 0.00 | 33 | 1008.3 |
| 20260502054857 | 95 | 196 | 0.0 | 3.0 | 0.00 | 0.00 | 0.00 | 32 | 1008.4 |
| 20260502054401 | 94 | 188 | 0.0 | 4.0 | 0.00 | 0.00 | 0.00 | 33 | 1008.6 |
| 20260502052847 | 93 | 228 | 3.0 | 6.0 | 0.00 | 0.00 | 0.00 | 35 | 1008.8 |
| 20260502051845 | 95 | 224 | 1.0 | 3.0 | 0.00 | 0.00 | 0.00 | 33 | 1008.8 |
| 20260502050845 | 94 | 213 | 1.0 | 4.0 | 0.00 | 0.00 | 0.00 | 33 | 1009.1 |
| 20260502045836 | 94 | 227 | 1.0 | 3.0 | 0.00 | 0.00 | 0.00 | 35 | 1009.2 |
| 20260502044830 | 93 | 210 | 0.0 | 3.0 | 0.00 | 0.00 | 0.00 | 35 | 1009.4 |
| 20260502043841 | 90 | 208 | 0.0 | 4.0 | 0.00 | 0.00 | 0.00 | 37 | 1009.6 |
| 20260502043826 | 91 | 243 | 2.0 | 4.0 | 0.00 | 0.00 | 0.00 | 36 | 1009.5 |
| 20260502041817 | 89 | 215 | 1.0 | 3.0 | 0.00 | 0.00 | 0.00 | 37 | 1009.7 |
| 20260502040815 | 89 | 209 | 0.0 | 3.0 | 0.00 | 0.00 | 0.00 | 42 | 1009.7 |